Location: La Voyette
(47.0538°N, 0.2383°E)
Time: 09:53:04
(UTC+00:00)

Daily predictions for brighter satellites

Satellite Brightness Start Highest point End
(mag) Time Altitude Azimuth Time Altitude Azimuth Time Altitude Azimuth
COSMOS 2406 3.3 16:34:33 10° SSW 16:40:17 75° ESE 16:46:00 10° NNE
Cosmos 468 Rocket 4.2 16:36:23 10° SSW 16:41:32 78° WNW 16:46:48 10° NNE
Meteor 1-31 Rocket 4.0 16:41:12 10° S 16:44:51 45° W 16:48:34 10° NNW
NOSS 2-2 (C) 4.4 16:44:24 10° NW 16:49:35 87° NE 16:56:56 10° SE
Cosmos 1092 Rocket 4.0 16:46:38 10° N 16:53:01 76° E 16:59:20 10° SSE
Cosmos 1898 Rocket 4.3 16:48:04 10° NNW 16:53:13 59° WSW 16:58:18 10° S
CZ-4B R/B 4.1 16:49:51 10° ESE 16:54:04 24° ENE 16:58:16 10° N
CZ-2D R/B 4.3 16:52:58 10° ESE 16:56:07 25° ENE 16:59:15 10° NNE
Meteor 2-21 4.4 16:50:33 10° N 16:56:35 63° ENE 17:02:33 10° SSE
ATLAS CENTAUR R/B 3.1 16:46:25 10° SW 16:57:14 84° NW 17:01:30 10° NE
USA 267 3.6 16:50:58 10° ENE 16:57:23 55° SE 17:03:46 10° SSW
Cosmos 1939 Rocket 3.0 16:54:39 10° SSE 16:58:39 56° ENE 17:02:38 10° N
USA 306 3.6 16:56:05 10° NW 17:00:04 37° NNE 17:03:51 11° E
Cosmos 1151 Rocket 3.7 16:57:15 10° SSE 17:01:09 34° E 17:05:06 10° NNE
Cosmos 1633 Rocket 3.7 16:57:38 10° N 17:01:38 34° ENE 17:05:39 10° SE
COSMO-SKYMED 1 4.2 16:59:19 10° NE 17:01:58 16° E 17:04:38 10° SE
Cosmos 1782 2.8 16:59:14 10° S 17:03:10 65° E 17:07:07 10° NNE
Cosmos 1666 3.2 17:00:00 10° N 17:03:26 34° ENE 17:06:50 10° SE
Cosmos 2360 Rocket 3.6 17:01:01 10° N 17:04:51 18° NE 17:08:17 11° E
ISS -2.3 17:02:30 10° WNW 17:05:43 40° SW 17:08:55 10° SE
Cosmos 1763 Rocket 4.5 17:03:05 10° SW 17:07:58 45° WNW 17:12:55 10° NNE
SeaSat 1 4.1 17:04:52 10° N 17:09:03 28° NW 17:13:13 10° WSW
SL-08 R/B 3.7 17:05:05 10° N 17:09:43 64° WNW 17:14:17 10° SSW
Cosmos 1818 3.7 17:05:36 10° NNW 17:11:02 57° NE 17:16:24 10° SE
NOAA 12 4.3 17:05:58 10° S 17:11:17 78° WSW 17:16:37 10° NNW
CZ-2C R/B 3.8 17:12:52 10° SSW 17:15:03 14° S 17:17:14 10° SE
Meteor 2-14 Rocket 4.4 17:09:45 10° N 17:15:54 87° E 17:21:58 10° S
Cosmos 2279 Rocket 4.1 17:11:11 10° SSE 17:17:10 53° E 17:23:09 10° NNE
ATLAS 5 CENTAUR R/B 3.1 17:09:29 10° NW 17:17:20 36° NNE 17:19:38 17° E
Cosmos 841 Rocket 3.6 17:12:58 10° SSW 17:18:07 80° WNW 17:23:18 10° NNE
ERBS 4.3 17:17:46 10° NNW 17:19:37 14° N 17:20:46 12° NNE
USA 307 3.5 17:16:39 10° NW 17:20:43 40° NNE 17:23:32 18° E
CZ-4C R/B 3.1 17:14:47 10° NW 17:22:01 88° SW 17:30:30 10° SE
Lacrosse 5 rocket 1.2 17:20:14 10° NW 17:24:08 73° NE 17:28:15 10° ESE
Cosmos 372 Rocket 4.5 17:20:03 10° NNW 17:25:15 66° WSW 17:30:26 10° S
ATLAS 2AS CENTAUR R/B 4.3 17:21:21 10° NW 17:27:01 22° N 17:31:18 13° NE
Cosmos 2208 Rocket 4.2 17:22:18 10° S 17:27:35 56° ESE 17:32:51 10° NNE
Cosmos 2322 Rocket 2.8 17:22:57 10° NNW 17:28:09 34° NE 17:33:18 10° ESE
AQUARIUS 4.2 17:25:29 10° SSE 17:29:58 89° SW 17:34:30 10° NNW
Cosmos 2150 Rocket 4.2 17:25:13 10° NNW 17:30:13 46° ENE 17:35:15 10° SE
Cosmos 1328 Rocket 3.8 17:26:53 10° SSE 17:31:09 49° E 17:35:28 10° NNE
Cosmos 1666 Rocket 3.5 17:26:51 10° N 17:31:18 82° E 17:35:41 10° S
USA 234 3.2 17:24:54 10° ESE 17:31:25 74° NNE 17:37:57 10° NW
Cosmos 1980 Rocket 2.9 17:25:56 10° NNW 17:31:30 59° WSW 17:37:00 10° S
Cosmos 1470 Rocket 3.9 17:30:35 10° N 17:34:53 44° ENE 17:39:09 10° SSE
Cosmos 1544 3.8 17:31:42 10° N 17:34:56 30° ENE 17:38:11 10° SE
CORIOLIS 4.3 17:30:04 10° SSE 17:35:29 82° WSW 17:40:58 10° NNW
Cosmos 1125 Rocket 3.7 17:31:22 10° NNW 17:36:28 48° ENE 17:41:33 10° SE
X-37B 2.2 17:34:45 10° SSW 17:36:58 20° SSE 17:37:49 18° SE
Cosmos 1812 2.7 17:33:07 10° S 17:36:58 88° WNW 17:40:51 10° N
Cosmos 2026 Rocket 4.5 17:31:43 10° NNW 17:37:45 62° W 17:43:40 10° S
PSLV R/B 3.5 17:34:23 10° SSE 17:38:04 80° ENE 17:41:52 10° NNW
H-2A R/B 1.9 17:33:47 10° SSE 17:38:51 68° ENE 17:43:50 10° N
Cosmos 1634 Rocket 4.3 17:33:17 10° SSW 17:39:36 72° W 17:45:57 10° N
Okean O Rocket 2.0 17:36:35 10° SE 17:40:42 39° ENE 17:44:52 10° N
Meteor 2-8 Rocket 4.5 17:35:03 10° S 17:41:04 61° E 17:47:09 10° NNE
Meteor 1-10 Rocket 4.5 17:35:47 10° SSE 17:41:13 46° E 17:46:35 10° NNE
Meteor 1-11 Rocket 4.0 17:36:34 10° N 17:41:57 43° ENE 17:47:23 10° SE
USA 308 3.2 17:39:22 10° NW 17:43:31 48° NNE 17:45:21 28° E
SL-16 R/B 2.2 17:43:19 10° NNW 17:48:57 59° ENE 17:54:33 10° SE
SKYMED 2 3.8 17:47:47 21° NE 17:50:25 46° E 17:54:36 10° S
ARGOS 3.2 17:45:31 10° SE 17:50:46 54° ENE 17:56:02 10° N
Cosmos 2082 Rocket 2.8 17:45:48 10° SW 17:51:22 55° WNW 17:56:56 10° NNE
SMAP 4.2 17:49:51 10° S 17:54:18 45° W 17:58:47 10° NNW
deb Chang Zheng 4 3.5 17:51:59 10° SSE 17:56:14 62° ENE 18:00:30 10° N
COSMOS 2455 3.7 17:54:00 10° WSW 17:59:46 45° NW 18:04:53 13° NNE
Feng Yun 1-1 Rocket 4.5 18:00:03 10° SE 18:05:42 50° ENE 18:11:18 10° N
USA 305 2.8 18:03:41 10° WNW 18:07:55 68° NNE 18:08:52 50° E
Cosmos 2333 Rocket 3.3 18:03:45 10° N 18:08:04 26° NE 18:08:04 26° NE
Cosmos 1356 Rocket 3.3 18:05:23 10° N 18:09:35 67° ENE 18:13:50 10° SSE
CZ-2C R/B 2.4 18:06:50 12° NNE 18:11:37 77° ESE 18:16:47 10° S
Cosmos 2219 Rocket 3.5 18:11:47 10° N 18:15:05 22° NNE 18:15:05 22° NNE
Cosmos 44 Rocket 4.3 18:12:19 10° NW 18:17:00 46° WSW 18:21:31 10° SSE
Cosmos 1655 Rocket 4.0 18:11:06 10° N 18:17:33 89° E 18:23:53 10° S
Aureole 3 Rocket 3.6 18:13:04 10° SSE 18:17:33 55° E 18:23:52 10° NNE
Cosmos 1515 Rocket 3.4 18:13:49 10° S 18:18:16 84° E 18:20:27 30° NNE
Cosmos 921 Rocket 3.2 18:16:35 10° SSW 18:20:46 65° WNW 18:22:47 30° N
Spot 2 4.5 18:23:28 35° SE 18:25:23 56° ENE 18:30:21 10° N
CZ-4 R/B 4.5 18:21:23 10° S 18:25:30 79° WSW 18:29:39 10° NNW
CZ-4B R/B 3.8 18:28:59 10° S 18:34:16 56° WSW 18:39:32 10° NNW
Cosmos 371 Rocket 4.3 18:31:03 10° NNW 18:33:50 31° N 18:33:50 31° N
COSMO-SKYMED 1 3.1 18:36:23 28° N 18:38:31 57° WNW 18:42:46 10° SSW
USA 306 3.0 18:35:58 10° WNW 18:39:52 73° W 18:39:52 73° W
USA 267 3.5 18:37:47 36° NE 18:40:27 60° NNW 18:46:52 10° WSW
Landsat 5 3.6 18:41:36 66° SW 18:41:36 66° SW 18:45:05 10° SSW
APEX 4.3 18:40:14 10° SW 18:43:02 36° W 18:43:02 36° W
Meteor 1-27 Rocket 3.6 18:38:41 10° S 18:44:12 89° W 18:46:30 37° N
Cosmos 2360 Rocket 2.0 18:44:06 10° NNW 18:49:48 80° ENE 18:50:07 76° ESE
Cosmos 2237 4.3 18:47:32 10° NNW 18:53:15 74° WSW 18:55:53 33° SSE
CZ-2C R/B 3.7 18:51:13 10° SW 18:53:23 15° S 18:53:23 15° S
USA 307 4.0 18:56:35 10° WNW 18:59:35 43° W 18:59:35 43° W
Lacrosse 5 rocket 3.8 18:59:58 10° W 19:02:53 19° SW 19:04:38 15° SSW
Cosmos 2322 Rocket 3.2 19:06:55 10° NW 19:12:20 45° WSW 19:17:09 13° S
COSMOS 2428 4.4 19:08:37 10° NNW 19:10:45 22° N 19:10:45 22° N
USA 234 4.3 19:10:00 16° SSE 19:14:44 40° SW 19:20:49 10° WNW
Okean O Rocket 3.9 19:13:33 10° SSW 19:17:10 24° W 19:20:49 10° NW
NOSS 3-4 (A) 4.0 19:10:34 10° NW 19:16:19 55° N 19:16:19 55° N
NOSS 3-4 (C) 4.0 19:10:40 10° NW 19:16:23 54° N 19:16:23 54° N
Cosmos 1867 4.1 19:14:21 10° SW 19:19:09 57° W 19:19:09 57° W
ATLAS 2AS CENTAUR R/B 3.8 19:13:34 10° NW 19:18:44 32° N 19:18:44 32° N
NOSS 3-3 (A) 4.2 19:21:09 10° SW 19:25:51 61° WSW 19:25:51 61° WSW
NOSS 3-3 (C) 4.2 19:21:15 10° SW 19:25:56 61° WSW 19:25:56 61° WSW
ATLAS CENTAUR R/B 4.5 19:24:40 10° WNW 19:27:07 17° NW 19:27:07 17° NW
SL-16 R/B 4.3 19:28:11 10° NW 19:32:37 24° WSW 19:37:02 10° SSW
Cosmos 2333 Rocket 3.9 19:47:37 10° NNW 19:50:08 26° NW 19:50:08 26° NW
Cosmos 2219 Rocket 4.3 19:55:13 10° NNW 19:56:49 19° NNW 19:56:49 19° NNW
